Regional Weather Roundup
Issued by NWS

Home | Current Version | Previous Version | Text Only | Print | Product List | Glossary On
Versions: 1 2 3 4 5 6 7 8 9 10 11 12 13 14 15 16 17 18 19 20 21 22 23 24 25 26 27 28 29 30 31 32 33 34 35 36 37 38 39 40 41 42 43 44 45 46 47 48 49 50
000
ASUS43 KMKX 020934
RWRWI

WISCONSIN REGIONAL WEATHER ROUNDUP
NATIONAL WEATHER SERVICE MILWAUKEE/SULLIVAN WI
500 AM CDT TUE JUN 02 2015

NOTE: "FAIR" INDICATES FEW OR NO CLOUDS BELOW 12,000 FEET WITH NO
SIGNIFICANT WEATHER AND/OR OBSTRUCTIONS TO VISIBILITY.

WIZ001-002-006>008-014>016-023>028-021100-
NORTHWEST WISCONSIN

CITY           SKY/WX    TMP DP  RH WIND       PRES   REMARKS
SUPERIOR ARPT  PTCLDY    41  35  80 NE3       30.12S
ASHLAND        PTCLDY    36  36 100 CALM      30.14R
HAYWARD        CLEAR     51  38  60 S7        30.14R
SIREN          PTCLDY    51  40  66 SE6       30.10F
CUMBERLAND     PTCLDY    46  39  76 SE6       30.13S
RICE LAKE      PTCLDY    50  39  67 SE9       30.15S
CHETEK         PTCLDY    48  40  75 E3        30.15S
LADYSMITH      CLEAR     45  38  78 E3        30.18R
EAU CLAIRE     MOCLDY    49  37  63 CALM      30.14S
MENOMONIE      MOCLDY    49  40  73 E3        30.13S
NEW RICHMOND   MOCLDY    53  40  61 S7        30.11S
OSCEOLA        PTCLDY    52  42  68 SE5       30.13S
$$

WIZ003>005-009-010-017-018-021100-
NORTH CENTRAL WISCONSIN

CITY           SKY/WX    TMP DP  RH WIND       PRES   REMARKS
MANITOWISH WTR PTCLDY    44  38  79 S6        30.17F
ARBOR VITAE    PTCLDY    47  38  70 S3        30.18S
WOODRUFF       PTCLDY    47  38  70 S3        30.18S
RHINELANDER    PTCLDY    38  35  89 CALM      30.19S
EAGLE RIVER    CLEAR     36  36 100 CALM      30.18S
LAND O LAKES   CLEAR     33  33 100 CALM      30.19S FOG
PHILLIPS       PTCLDY    45  38  78 SE3       30.16S
TOMAHAWK       PTCLDY    35  34  94 CALM      30.19R
MEDFORD        PTCLDY    44  38  81 SE3       30.18R
MERRILL        PTCLDY    35  35  99 CALM      30.20S
$$

WIZ029-030-035-036-043>047-021100-
CENTRAL WISCONSIN

CITY           SKY/WX    TMP DP  RH WIND       PRES   REMARKS
WAUSAU         PTCLDY    42  39  89 SE5       30.18S
MOSINEE        PTCLDY    43  39  87 CALM      30.19S
MARSHFIELD     PTCLDY    45  37  73 E3        30.18S
STEVENS POINT  PTCLDY    37  35  96 CALM      30.19S
WAUPACA        CLEAR     42  41  97 CALM      30.20S
WAUTOMA        CLEAR     38  38 100 CALM      30.21S
WISC RAPIDS    PTCLDY    42  36  79 SE6       30.19F
CAMP DOUGLAS   PTCLDY    36  36 100 E3        30.17S
$$

WIZ011>013-019>022-031-037>040-048>050-021100-
NORTHEAST WISCONSIN

CITY           SKY/WX    TMP DP  RH WIND       PRES   REMARKS
ANTIGO         PTCLDY    38  37  97 CALM      30.19F
SHAWANO        PTCLDY    41  39  93 CALM      30.20S
OCONTO         CLEAR     34  34 100 CALM      30.20S
STURGEON BAY   CLEAR     41  34  75 CALM      30.22S
GREEN BAY      CLEAR     42  40  92 CALM      30.20S
MANITOWOC      CLEAR     40  38  93 CALM      30.20F
APPLETON       CLEAR     46  34  61 CALM      30.19F
CLINTONVILLE   CLEAR     41  41 100 CALM      30.20S
OSHKOSH        CLEAR     41  38  89 CALM      30.18F
$$

WIZ032>034-041-042-053>061-021100-
SOUTHWEST WISCONSIN

CITY           SKY/WX    TMP DP  RH WIND       PRES   REMARKS
LA CROSSE      PTCLDY    53  37  54 SE8       30.15F
SPARTA         PTCLDY    37  36  97 CALM      30.18S
VIROQUA        PTCLDY    47  35  63 SE8       30.17S
BOSCOBEL       CLEAR     40  38  93 CALM      30.19S
PRAIRIE DU CHI CLEAR     46  38  71 CALM      30.17S
PLATTEVILLE    CLEAR     46  40  78 E7        30.18S
$$

WIZ056-057-062-063-064-067-068-021100-
SOUTH CENTRAL WISCONSIN

CITY           SKY/WX    TMP DP  RH WIND       PRES   REMARKS
REEDSBURG      CLEAR     39  37  94 CALM      30.19S
BARABOO/DELLS  CLEAR     39  35  83 CALM      30.19S
LONE ROCK      CLEAR     43  39  86 CALM      30.20S
MINERAL POINT  CLEAR     45  36  70 SE6       30.19R
MADISON        CLEAR     40  35  83 CALM      30.19S
MIDDLETON      CLEAR     40  38  89 CALM      30.20S
WATERTOWN      CLEAR     39  39  99 CALM      30.19F
MONROE         CLEAR     45  36  70 E5        30.18F
JANESVILLE     CLEAR     43  39  87 CALM      30.18S
$$

WIZ051-052-058>065-066-070>072-021100-
SOUTHEAST WISCONSIN

CITY           SKY/WX    TMP DP  RH WIND       PRES   REMARKS
MILWAUKEE      CLEAR     43  34  70 CALM      30.20R
WAUKESHA       CLEAR     37  34  87 CALM      30.20S
MILWAUKEE/TIMM CLEAR     41  34  75 CALM      30.20F
RACINE         CLEAR     42  37  82 N3        30.21S
BURLINGTON     CLEAR     35  34  96 CALM      30.19S
KENOSHA        CLEAR     39  35  86 N5        30.19S
FOND DU LAC    CLEAR     40  38  93 CALM      30.19F
SHEBOYGAN      CLEAR     39  36  89 CALM      30.20S
WEST BEND      CLEAR     37  36  93 CALM      30.20S
JUNEAU         CLEAR     41  37  86 CALM      30.21S
$$

LSZ147-162-021100-
LAKE SUPERIOR

STATION/POSITION TIME  TEMP    WIND        PRES    WAVE
                       AIR SEA DIR/SP/G            HT/PER
                 (UTC) (F)     (DEG/KT/KT) (MB)    (FT/S)
W MID LAKE BUOY  0850   39 37  140/  4/  4   N/A     1
DEVILS ISLAND    0900   45     140/  4/  5   N/A
PORT WING        0800   42      CALM  /  1   N/A
SAXON HARBOR     0800   53     190/  3/  8   N/A
$$

LMZ867-665-643>646-021100-
LAKE MICHIGAN

STATION/POSITION TIME  TEMP    WIND        PRES    WAVE
                       AIR SEA DIR/SP/G            HT/PER
                 (UTC) (F)     (DEG/KT/KT) (MB)    (FT/S)
CHAMBERS ISLAND  0800   41      CALM  /  1   N/A
N MID LAKE BUOY  0850   44 37  190/  8/ 10   N/A     0
NORTHPORT PIER   0800   47     140/  5/  8   N/A
SISTER BAY       0818   46        CALM       N/A
ALGOMA LAKESHORE 0839           80/  2/  3   N/A
KEWAUNEE LAKESHO 0900   41      CALM  /  1   N/A
SHEBOYGAN LAKESH 0900   48      10/  1/  2   N/A
PORT WASHINGTON  0840   44     290/  3/  4   N/A
ATWATER BUOY     0900   46     360/  2/  4   N/A
MILWAUKEE LAKESH 0900   47     340/  1/  2   N/A
S MID LAKE BUOY  0850   43 38   50/  6/  6   N/A     1/ 4
KENOSHA   LAKESH 0800   47      10/  2/  4   N/A
$$

TC  - TEMPERATURE IN CELSIUS
VSB - VISIBILITY IN STATUTE MILES
WCI - WIND CHILL INDEX
HX  - HEAT INDEX



USA.gov is the U.S. government's official web portal to all federal, state and local government web resources and services.